Terrell, TX

2:53 AM CDT on March 24, 2017 (GMT -0500)
Terrell Municipal

Weather History for KTRL - January, 2014

Change the Weather History Date:

Tuesday, January 21, 2014

  Actual Average (KGVT) Record (KGVT)
Temperature  
Mean Temperature 41 °F -  
Max Temperature 52 °F 54 °F 77 °F (2005)
Min Temperature 30 °F 38 °F 21 °F (2011)
Degree Days  
Heating Degree Days 24    
Moisture  
Dew Point 14 °F    
Average Humidity 34    
Maximum Humidity 64    
Minimum Humidity 21    
Precipitation  
Precipitation 0.00 in - - ()
Sea Level Pressure  
Sea Level Pressure 30.31 in    
Wind  
Wind Speed 9 mph (NNW)    
Max Wind Speed 17 mph    
Max Gust Speed 26 mph    
Visibility 10 miles    
Events      
Averages and records for this station are not official NWS values.
T = Trace of Precipitation, MM = Missing Value Source: NWS Daily Summary

Daily Weather History Graph

Daily Weather History Graph

Search for Another Location

Airport or City:

Trip Planner

Search our weather history database for the weather conditions in past years. The results will help you decide how hot, cold, wet, or windy it might be!

Date:

Astronomy

Jan. 21, 2014 Rise Set
Actual Time 7:25 AM CST 5:47 PM CST
Civil Twilight 6:59 AM CST 6:13 PM CST
Nautical Twilight 6:29 AM CST 6:43 PM CST
Astronomical Twilight 5:59 AM CST 7:13 PM CST
Moon 11:00 PM CST (1/21) 10:14 AM CST (1/21)
Length of Visible Light 11h 14m
Length of Day
10h 21m
Waning Gibbous, 74% of the Moon is Illuminated
Jan 21
Waning Gibbous
Jan 23
Last Quarter
Jan 30
New
Feb 6
First Quarter
Feb 14
Full

Hourly Weather History & Observations

Time (CST) Temp. Windchill Dew Point Humidity Pressure Visibility Wind Dir Wind Speed Gust Speed Precip Events Conditions
12:53 AM 52.0 °F - 21.9 °F 31% 30.22 in 10.0 mi North 10.4 mph - N/A   Clear
1:53 AM 48.9 °F - 21.9 °F 35% 30.23 in 10.0 mi North 8.1 mph - N/A   Clear
2:53 AM 46.9 °F - 21.9 °F 37% 30.26 in 10.0 mi North 10.4 mph - N/A   Clear
3:53 AM 46.9 °F - 19.9 °F 34% 30.28 in 10.0 mi North 10.4 mph - N/A   Clear
4:53 AM 46.0 °F 39.3 °F 19.0 °F 34% 30.30 in 10.0 mi North 16.1 mph 23.0 mph N/A   Clear
5:53 AM 44.1 °F 37.7 °F 16.0 °F 32% 30.32 in 10.0 mi North 12.7 mph - N/A   Clear
6:53 AM 42.1 °F 35.7 °F 16.0 °F 35% 30.35 in 10.0 mi NNW 11.5 mph 20.7 mph N/A   Clear
7:53 AM 39.9 °F 33.9 °F 18.0 °F 41% 30.37 in 10.0 mi NNW 9.2 mph - N/A   Clear
8:53 AM 41.0 °F 32.5 °F 12.9 °F 32% 30.40 in 10.0 mi NNW 17.3 mph 26.5 mph N/A   Clear
9:53 AM 41.0 °F 33.9 °F 10.9 °F 29% 30.43 in 10.0 mi North 12.7 mph 24.2 mph N/A   Clear
10:53 AM 41.0 °F 33.5 °F 10.0 °F 28% 30.43 in 10.0 mi North 13.8 mph - N/A   Clear
11:53 AM 43.0 °F 35.4 °F 8.1 °F 24% 30.42 in 10.0 mi North 16.1 mph - N/A   Clear
12:53 PM 45.0 °F 38.5 °F 7.0 °F 21% 30.38 in 10.0 mi North 13.8 mph - N/A   Clear
1:53 PM 46.0 °F 41.4 °F 9.0 °F 22% 30.34 in 10.0 mi North 9.2 mph 19.6 mph N/A   Clear
2:53 PM 46.9 °F - 8.1 °F 21% 30.32 in 10.0 mi North 8.1 mph - N/A   Clear
3:53 PM 46.9 °F - 10.0 °F 22% 30.31 in 10.0 mi WNW 8.1 mph - N/A   Clear
4:53 PM 46.0 °F 42.5 °F 9.0 °F 22% 30.30 in 10.0 mi NNW 6.9 mph - N/A   Clear
5:53 PM 43.0 °F - 9.0 °F 25% 30.29 in 10.0 mi Calm Calm - N/A   Clear
6:53 PM 39.0 °F - 10.9 °F 32% 30.27 in 10.0 mi Calm Calm - N/A   Clear
7:53 PM 36.0 °F - 15.1 °F 43% 30.26 in 10.0 mi Calm Calm - N/A   Clear
8:53 PM 32.0 °F - 17.1 °F 54% 30.25 in 10.0 mi Calm Calm - N/A   Clear
9:53 PM 30.0 °F - 19.0 °F 64% 30.23 in 10.0 mi Calm Calm - N/A   Clear
10:53 PM 32.0 °F - 17.1 °F 54% 30.22 in 10.0 mi Calm Calm - N/A   Clear
11:53 PM 32.0 °F - 16.0 °F 52% 30.20 in 10.0 mi Calm Calm - N/A   Clear